Weather Roundup
Issued by NWS

Home | Current Version | Previous Version | Graphics & Text | Print | Product List | Glossary Off
Versions: 1 2 3 4 5 6 7 8 9 10 11 12 13 14 15 16 17 18 19 20 21 22 23 24 25 26 27 28 29 30 31 32 33 34 35 36 37 38 39 40 41 42 43 44 45 46 47 48 49 50

000
NZUS93 KARX 272359
HRRWXR

CURRENT HOURLY OBSERVATIONS ACROSS
MUCH OF THE UPPER MISSISSIPPI VALLEY
NATIONAL WEATHER SERVICE LA CROSSE WI
700 PM CDT FRI MAR 27 2015


...SOUTHEAST MINNESOTA...


CITY           SKY/WX    TMP DP  RH WIND       PRES   REMARKS
ROCHESTER      PTCLDY    26  10  50 CALM      30.16R
ROCHESTER/MAYO FAIR      29  11  47 W5        30.16R WCI  23
WINONA         CLEAR     32  12  43 SW7       30.19R WCI  26
AUSTIN         PTCLDY    27  12  54 E6        30.15S WCI  20
ALBERT LEA     PTCLDY    30  14  51 E7        30.14S WCI  23
DODGE CENTER   PTCLDY    27   3  36 CALM      30.16R
PRESTON        CLEAR     26  11  53 NW3       30.16S
OWATONNA       PTCLDY    28  10  47 E3        30.16S
FARIBAULT      MOCLDY    30   7  37 CALM      30.16S
$$

...ELSEWHERE IN MINNESOTA...


CITY           SKY/WX    TMP DP  RH WIND       PRES   REMARKS
MINNEAPOLIS    MOCLDY    32   5  32 SW10      30.16R WCI  24
INTNL FALLS    NOT AVBL
DULUTH         NOT AVBL
RED WING       PTCLDY    32   7  34 SW7       30.17R WCI  26
REDWOOD FALLS  CLOUDY    32  20  61 NE9       30.11S WCI  24
MANKATO        MOCLDY    30  12  47 E7        30.14F WCI  23
WORTHINGTON    CLOUDY    34   9  35 SW10      30.09F WCI  26
FAIRMONT       MOCLDY    36   9  32 S7        30.12S WCI  30
$$

...SOUTHWEST WISCONSIN...


CITY           SKY/WX    TMP DP  RH WIND       PRES   REMARKS
LA CROSSE      CLEAR     34   9  35 W3        30.17R
PRAIRIE DU CHI CLEAR     32   7  34 CALM      30.18S
BOSCOBEL       CLEAR     34   8  33 CALM      30.17S
LONE ROCK      NOT AVBL
PLATTEVILLE    CLEAR     32  11  43 W6        30.16S WCI  26
FORT MC COY    CLEAR     35   4  27 W3        30.15S
VIROQUA        FAIR      31   8  37 CALM      30.13S
WIS DELLS      NOT AVBL
$$

...ELSEWHERE IN WISCONSIN...


CITY           SKY/WX    TMP DP  RH WIND       PRES   REMARKS
MILWAUKEE      FAIR      24  11  57 NE13      30.19R WCI  12
MADISON        CLEAR     31   4  31 NE7       30.15S WCI  24
GREEN BAY      CLEAR     27   9  46 E6        30.19R WCI  20
EAU CLAIRE     NOT AVBL
BLACK RVR FLS  FAIR      35   2  24 CALM      30.15R
MEDFORD        CLEAR     29  11  48 S6        30.12R WCI  23
WAUSAU         CLEAR     30   0  27 CALM      30.12R
WIS RAPIDS     CLEAR     29   5  36 NW6       30.17R WCI  23
MARSHFIELD     CLEAR     30   8  39 CALM      30.14R
RICE LAKE      CLEAR     33   4  29 CALM      30.16S
$$

...NORTHEAST IOWA...


CITY           SKY/WX    TMP DP  RH WIND       PRES   REMARKS
DECORAH        CLEAR     28   9  43 CALM      30.15S
MASON CITY     PTCLDY    34  11  38 CALM      30.15R
CHARLES CITY   PTCLDY    30  14  51 NE9       30.16S WCI  22
OELWEIN        CLEAR     30  10  43 NE7       30.17R WCI  23
$$

...ELSEWHERE IN IOWA...


CITY           SKY/WX    TMP DP  RH WIND       PRES   REMARKS
DES MOINES     CLOUDY    39   7  26 W3        30.15S
IOWA CITY      CLEAR     36   8  31 N6        30.18R WCI  31
FORT DODGE     CLOUDY    36  10  35 CALM      30.15R
$$

...NORTHERN ILLINOIS...


CITY           SKY/WX    TMP DP  RH WIND       PRES   REMARKS
CHICAGO-OHARE  PTCLDY    26  13  57 NE12      30.18R WCI  16
CHICAGO-MIDWAY PTCLDY    27  13  55 N13       30.18R WCI  16
MOLINE         CLEAR     35   7  31 NE6       30.16R WCI  30
ROCKFORD       CLEAR     31   6  35 N9        30.18R WCI  23
PEORIA         CLEAR     34  11  38 NE8       30.17S WCI  27
$$

NOTE: "FAIR" INDICATES FEW OR NO CLOUDS BELOW 12,000 FEET WITH NO
SIGNIFICANT WEATHER AND/OR OBSTRUCTIONS TO VISIBILITY. WIND
SPEEDS ARE IN MILES-PER-HOUR.



USA.gov is the U.S. government's official web portal to all federal, state and local government web resources and services.